Location: Unspecified
(40.7945°N, 111.1337°W)
Time: 09:55:32
(UTC-06:00)

Tiangong 2 - Visible Passes

Search period start: 21 May 2019 00:00
Search period end: 31 May 2019 00:00
Orbit: 379 x 387 km, 42.8° (Epoch: 21 May)

Date Brightness Start Highest point End Pass type
(mag) Time Alt. Az. Time Alt. Az. Time Alt. Az.
21 May 1.0 21:38:11 10° WSW 21:41:15 66° SSE 21:44:21 10° ENE visible
21 May 2.4 23:14:57 10° W 23:17:08 38° WNW 23:17:08 38° WNW visible
22 May 1.4 22:14:51 10° W 22:17:57 65° N 22:20:06 18° ENE visible
22 May 3.9 23:51:43 10° WNW 23:52:18 14° WNW 23:52:18 14° WNW visible
23 May 1.1 21:14:46 10° WSW 21:17:53 85° NNW 21:21:01 10° ENE visible
23 May 1.5 22:51:39 10° WNW 22:54:45 57° N 22:55:06 52° NE visible
24 May 1.6 21:51:34 10° W 21:54:38 57° N 21:57:43 10° ENE visible
24 May 2.9 23:28:21 10° WNW 23:29:57 27° WNW 23:29:57 27° WNW visible
25 May 1.3 22:28:18 10° WNW 22:31:25 65° N 22:32:33 34° E visible
26 May 1.6 21:28:13 10° WNW 21:31:19 57° N 21:34:23 10° E visible
26 May 1.9 23:04:58 10° WNW 23:07:17 43° W 23:07:17 43° W visible
27 May 1.0 22:04:55 10° WNW 22:08:02 84° NNE 22:09:49 23° ESE visible
27 May 4.1 23:41:55 10° W 23:41:59 10° W 23:41:59 10° W visible
28 May 1.7 22:41:38 10° W 22:44:30 41° SSW 22:44:30 41° SSW visible
29 May 1.1 21:41:29 10° WNW 21:44:36 68° SSW 21:47:02 15° ESE visible
29 May 3.9 23:19:06 10° WSW 23:19:12 10° WSW 23:19:12 10° WSW visible
30 May 2.5 22:18:24 10° W 22:21:01 25° SSW 22:21:45 22° S visible
